This is the latest recevied weather packets stored in our database for station/object N8XHB. If no packets are shown the sender has not sent any weather packets the latest 10 day(s).
| Time | Temp. | Humidity | Pressure | Rain* | Wind** | Luminosity | Snow |
|---|---|---|---|---|---|---|---|
| 1777475238 | 10.56° C | 76% | 1012.5 hPa | 0 mm | - | 102 W/m² | - |
| 1777474933 | 10.56° C | 78% | 1012.5 hPa | 0 mm | - | 95 W/m² | - |
| 1777474629 | 10.56° C | 77% | 1012.6 hPa | 0 mm | - | 91 W/m² | - |
| 1777474326 | 10.56° C | 76% | 1012.3 hPa | 0 mm | - | 103 W/m² | - |
| 1777474023 | 10.56° C | 77% | 1012.7 hPa | 0 mm | - | 123 W/m² | - |
| 1777473721 | 10° C | 77% | 1012.4 hPa | 0 mm | - | 111 W/m² | - |
| 1777473417 | 10° C | 76% | 1012.5 hPa | 0 mm | - | 98 W/m² | - |
| 1777473113 | 10° C | 76% | 1012.5 hPa | 0 mm | - | 106 W/m² | - |
| 1777472809 | 10° C | 76% | 1012.5 hPa | 0 mm | - | 72 W/m² | - |
| 1777472506 | 10° C | 76% | 1012.5 hPa | 0 mm | - | 77 W/m² | - |
| 1777472203 | 10° C | 76% | 1012.6 hPa | 0 mm | - | 66 W/m² | - |
| 1777471899 | 10° C | 76% | 1012.7 hPa | 0 mm | - | 68 W/m² | - |
| 1777471596 | 10° C | 76% | 1012.8 hPa | 0 mm | - | 61 W/m² | - |
| 1777471292 | 10° C | 77% | 1012.6 hPa | 0 mm | - | 71 W/m² | - |
| 1777470988 | 10° C | 77% | 1012.7 hPa | 0 mm | - | 77 W/m² | - |
| 1777470686 | 10° C | 77% | 1012.6 hPa | 0 mm | - | 101 W/m² | - |
| 1777470382 | 10° C | 77% | 1012.6 hPa | 0 mm | - | 124 W/m² | - |
| 1777470079 | 10° C | 77% | 1012.7 hPa | 0 mm | - | 98 W/m² | - |
| 1777469775 | 10° C | 78% | 1012.6 hPa | 0 mm | - | 159 W/m² | - |
| 1777469471 | 9.44° C | 77% | 1012.6 hPa | 0 mm | - | 114 W/m² | - |
| 1777469171 | 10° C | 77% | 1012.7 hPa | 0 mm | - | 67 W/m² | - |
| 1777468871 | 10° C | 78% | 1012.5 hPa | 0 mm | - | 90 W/m² | - |
| 1777468568 | 9.44° C | 78% | 1012.7 hPa | 0 mm | - | 93 W/m² | - |
| 1777468265 | 9.44° C | 78% | 1012.7 hPa | 0 mm | - | 67 W/m² | - |
| 1777467961 | 9.44° C | 78% | 1012.8 hPa | 0 mm | - | 63 W/m² | - |
* Rain latest hour (hover to see other rain measurements)
** Current wind speed in m/s (hover to see current wind gust speed)